パンスターズ彗星

348P/PanSTARRS (2022)

English version
Home page
Updated on October 9, 2020

---------------------------------------------------------------------

・ プロフィール

・ 軌道要素

Epoch 2022 Mar. 2.0 TT = JDT 2459640.5
T 2022 Feb. 12.52007 TT                                 Rudenko
q   2.1838669            (2000.0)            P               Q
n   0.17625511     Peri.  135.66211     +0.00003716     -0.97480569
a   3.1504667      Node   312.94170     +0.81172989     +0.13030134
e   0.3068116      Incl.   17.74019     +0.58403303     -0.18103988
P   5.59
From 53 observations 2009 Sept. 18-2020 Aug. 23, mean residual 0".7.

・ 光度変化

        m1 = 14.0 + 5 logΔ + 10.0 log r

---------------------------------------------------------------------

軌道要素はM.P.E.C. 2020-S188に掲載されたものです。
光度グラフはComet for Windowsで作成したものです。

---------------------------------------------------------------------

Copyright(C) Seiichi Yoshida (comet@aerith.net). All rights reserved.